Starlink 11705

operational
NORAD ID: 63758 Int'l Des: 2025-089 Owner: SPXS Country: US Constellation: starlink
LEOCIRCULAR

关于 Starlink 11705

正在加载描述...

实时位置

正在加载3D地球...

即将过境

高度历史

Altitude vs Time

uPlot chart will show altitude changes over time

两行轨道根数

1 63758U 25089H 25260.04413061 .00231397 00000-0 17504-2 0 9991
2 63758 42.9983 259.0948 0000317 82.0145 278.0759 15.70930267 22770
Epoch: Sep 17, 2025 • Age: 27 hours

当前状态

高度 364.3 km
速度 7.69 km/s
星下点 -33.52°S, 60.16°E
发射日期 Apr 29, 2025
运行时间 0.3 years
类型 internet

技术详情

分类 Payload
质量 960.00 kg
干质量 910.00 kg
总质量 960.00 kg
长度 0.30 m
直径 4.10 m
跨度 29.00 m
形状 Box + pan
制造商 SPXS
平台类型 Starlink V2MD
阶段状态 In Orbit
所有者/国家 SPXS/US

大型星座

Loading constellations...